RH
32 27 17 7 3 4 5 8 9 12 16 22 26 19 13 11 11 13 13 14 13 14 14 16 16 14 12 10 13 15 14 10 9 9 10 12 31 26 7 10 10 12 23
40 35 34 26 14 4 3 4 6 9 11 19 30 26 17 15 10 11 9 9 12 14 16 17 18 19 19 10 9 12 14 14 10 9 8 6 19 31 8 8 8 7 8
39 36 34 34 32 23 8 3 3 3 4 9 17 24 20 18 13 16 17 8 8 13 14 15 16 16 18 18 11 7 9 10 10 8 8 7 7 14 8 4 5 5 5
36 35 35 34 33 33 30 15 4 3 4 6 10 15 14 12 9 6 10 18 9 8 10 13 12 11 10 11 14 12 7 7 7 8 7 6 7 7 8 4 3 3 3
22 23 25 26 30 33 32 33 26 6 4 5 7 10 14 12 8 7 6 6 9 6 8 9 12 12 9 7 8 10 12 6 6 6 6 6 6 6 7 6 5 4 4
19 21 21 26 26 27 30 33 33 34 18 5 6 7 9 10 10 8 7 7 7 7 6 6 8 10 11 10 7 6 7 9 6 5 5 5 5 4 5 7 5 5 4
34 37 37 45 48 46 39 35 34 33 35 32 12 5 7 7 7 7 7 7 7 8 8 7 7 6 6 6 8 8 7 5 6 9 6 4 4 4 4 4 4 4 4
43 47 44 57 66 59 58 58 58 47 44 38 41 29 8 7 8 7 7 6 6 7 7 7 8 8 7 7 6 5 6 7 6 5 6 8 6 4 4 4 4 4 4
51 62 45 57 60 59 58 59 66 71 64 62 61 54 50 38 12 8 8 8 7 6 6 6 6 6 6 7 7 7 6 5 5 7 6 5 6 8 8 7 5 4 3
61 65 52 52 59 60 48 47 51 53 52 54 50 52 61 64 59 51 30 11 8 8 7 6 5 5 5 6 6 6 7 6 6 5 5 6 6 5 6 8 9 11 12
59 64 61 62 59 50 32 23 33 38 36 35 30 28 36 52 62 62 64 59 50 29 10 8 7 6 5 5 5 5 6 6 6 6 6 5 6 6 6 5 6 8 9
59 61 61 52 43 36 28 25 40 38 38 40 40 40 38 42 51 65 70 71 72 75 68 51 28 8 7 7 6 5 5 5 6 6 6 6 5 6 7 7 6 6 6
38 41 45 42 42 41 38 37 34 32 23 24 15 22 29 32 43 45 45 45 70 80 74 74 82 64 46 20 7 6 6 5 5 5 6 6 6 6 5 6 7 7 6
33 37 34 35 26 15 8 4 3 3 3 3 3 3 3 3 3 4 22 34 41 56 57 70 85 86 86 80 61 44 16 7 6 6 6 23 6 6 5 5 5 6 7
4 4 4 3 4 4 4 4 4 4 4 4 4 4 4 4 4 4 3 4 8 17 43 23 32 71 93 92 88 95 82 53 37 16 9 22 14 10 6 7 8 5 5
6 9 10 10 10 11 11 11 11 12 13 13 12 12 11 9 7 5 5 4 4 4 8 9 20 40 56 77 92 90 96 97 87 72 58 26 19 15 16 11 6 6 5
18 19 19 19 20 20 20 19 18 18 16 15 11 7 6 6 10 13 14 10 6 6 5 4 4 5 14 16 30 87 92 94 97 97 96 90 49 29 35 23 18 7 8
18 18 17 18 19 20 19 17 13 8 4 1 1 1 1 1 1 1 2 5 14 15 9 8 6 5 4 4 7 6 24 34 44 77 95 98 94 91 60 81 40 28 18
17 16 15 14 14 12 8 3 1 1 1 1 1 1 1 1 1 1 1 2 3 10 18 18 13 10 9 6 5 5 4 4 4 7 34 51 89 76 85 94 55 64 40
18 18 16 15 12 8 4 2 1 1 1 1 1 1 1 1 1 2 2 2 3 6 13 22 21 21 17 14 11 9 8 7 5 5 11 8 23 13 59 70 85 74 62
19 18 18 17 13 7 3 2 1 1 1 1 1 1 1 1 1 2 3 3 5 8 13 14 21 25 24 22 21 18 16 14 11 22 15 4 4 6 4 35 56 78 72
16 17 17 17 16 11 5 2 1 1 1 1 1 1 1 1 1 2 2 3 4 5 8 11 14 17 20 22 21 21 20 19 18 17 28 37 14 47 29 12 79 62 74
17 15 15 16 17 15 10 5 2 1 1 1 1 1 1 1 2 1 2 2 2 3 3 4 4 5 6 7 9 11 12 12 13 13 13 14 12 98 27 16 27 30 37
22 21 20 19 19 19 16 8 3 2 2 2 2 2 2 2 2 2 2 2 2 2 2 2 2 2 2 2 3 4 4 5 5 6 6 8 10 13 11 11 13 26 29
26 25 23 23 24 23 21 15 7 3 2 2 2 2 2 2 2 2 2 2 2 2 2 2 2 2 2 2 2 2 2 2 2 2 2 4 4 5 8 9 8 9 10
31 28 28 29 30 29 27 24 16 5 3 2 2 2 2 2 3 3 3 3 3 3 3 4 4 3 3 3 2 2 2 2 3 2 2 2 2 2 3 4 5 6 7
Wind_Speed
20 20 20 18 17 17 16 16 15 14 14 14 13 13 13 12 12 11 10 11 12 13 15 16 18 17 15 13 11 11 9 9 7 7 7 8 9 9 11 12 13 14 15
17 18 19 18 18 18 16 17 16 16 16 16 15 13 11 11 11 12 11 10 10 9 12 14 15 15 17 16 12 10 9 9 8 6 7 7 7 9 9 10 11 11 11
15 16 16 16 17 18 18 17 16 15 14 15 14 11 10 10 10 11 11 10 8 7 8 12 12 13 13 15 15 12 10 9 7 5 5 5 5 6 7 8 9 10 10
12 12 13 13 14 15 17 18 15 14 12 13 12 10 8 7 8 10 10 11 10 8 8 9 11 13 13 12 13 14 12 10 7 5 5 6 5 4 6 6 8 10 11
11 11 11 11 11 12 14 15 15 14 12 10 9 8 7 4 3 5 7 8 10 10 9 9 9 11 12 12 12 12 12 11 9 7 4 4 5 4 5 4 5 6 7
10 11 10 10 10 10 11 11 11 12 12 9 6 5 6 4 2 0 2 4 5 7 9 9 10 10 11 12 12 12 11 10 9 9 7 4 3 4 6 5 5 4 4
7 8 8 9 8 8 7 8 8 8 8 9 7 4 1 3 3 3 2 2 2 4 6 7 8 10 10 11 11 11 10 10 10 8 7 7 4 2 4 4 4 4 2
5 8 7 6 8 8 7 6 4 4 4 4 3 4 3 3 5 7 6 5 5 4 4 5 6 8 9 10 9 10 10 9 8 8 6 5 4 4 2 2 3 4 4
5 9 9 8 10 10 8 7 7 6 4 4 5 5 5 6 6 8 10 10 9 9 8 7 6 6 7 8 9 9 9 9 8 7 5 5 4 3 3 4 6 8 8
9 11 12 13 13 14 14 13 13 12 10 10 10 10 11 10 10 10 10 12 13 13 13 13 11 10 9 10 9 8 9 9 8 7 7 6 5 5 5 5 6 7 10
13 14 15 16 16 17 18 17 16 17 18 18 16 14 12 11 13 13 15 14 14 14 15 16 17 16 15 14 13 13 11 11 10 10 8 7 7 7 7 7 7 7 8
15 16 18 18 19 19 18 18 21 23 23 22 22 21 19 18 16 16 15 16 17 18 19 18 18 18 19 20 19 18 17 16 15 13 12 12 11 10 10 10 10 10 9
15 16 16 17 19 20 22 23 24 25 25 26 26 25 25 26 25 24 23 22 20 19 21 22 23 23 21 20 21 22 23 22 21 20 16 16 15 15 13 13 12 12 12
13 16 19 21 21 21 22 22 23 23 24 24 25 26 26 27 27 26 27 25 26 26 26 26 26 25 26 26 25 23 23 24 25 25 23 22 20 19 18 17 16 16 15
16 18 20 22 24 25 26 26 27 28 28 27 28 29 31 31 31 31 31 31 30 27 27 28 29 30 29 29 29 30 28 26 25 26 27 28 26 25 24 23 21 20 19
20 22 24 25 25 26 28 28 28 29 29 30 30 31 32 33 35 37 36 35 35 34 33 31 32 30 31 33 30 32 32 32 33 31 31 30 30 30 29 28 27 25 23
23 24 26 27 28 29 29 30 31 30 30 30 30 31 34 36 39 40 40 41 41 39 38 37 36 34 32 33 33 36 37 36 33 38 38 35 34 32 30 32 32 30 27
20 23 27 29 30 29 29 30 29 29 28 25 24 25 26 30 36 41 43 41 42 43 42 40 38 38 37 36 36 35 37 41 42 41 30 23 25 35 33 34 33 33 31
17 20 22 24 25 26 27 28 28 27 25 23 23 24 28 29 32 35 38 40 39 39 40 41 42 40 40 40 39 38 38 37 36 36 37 38 30 34 26 28 31 34 32
18 18 17 19 22 24 25 25 26 26 25 25 23 25 27 29 32 34 30 30 32 32 34 34 37 39 40 40 41 42 40 39 38 38 35 34 33 35 35 22 36 36 32
22 22 21 20 19 21 23 25 26 25 27 27 25 26 27 28 30 29 27 25 24 25 27 28 31 33 34 36 38 39 38 39 39 40 39 35 36 35 27 34 30 26 35
26 27 27 26 25 23 24 25 26 26 26 28 27 27 27 26 26 24 22 22 22 22 22 24 27 28 31 34 34 35 36 38 37 34 39 36 35 44 26 37 28 28 31
27 29 29 30 29 27 27 27 28 28 28 28 28 28 26 25 26 24 22 21 19 18 19 21 22 24 26 28 30 32 33 34 34 33 34 34 37 46 33 38 37 34 33
30 31 31 31 31 30 30 30 30 31 31 31 30 27 26 27 27 26 23 19 17 16 14 15 15 16 18 21 22 24 27 30 34 34 32 33 36 43 43 44 39 40 39
33 34 34 35 34 32 32 33 33 33 34 34 32 30 30 29 28 27 25 25 22 19 20 19 18 20 18 18 17 16 17 18 22 27 31 33 36 39 39 40 42 44 43
34 34 34 35 35 35 34 34 35 36 36 37 36 34 33 33 32 32 31 29 28 27 25 25 25 24 24 24 24 24 23 23 21 22 24 27 28 32 38 40 42 44 45
Wind_Direction
92 85 78 71 68 73 74 73 69 66 63 72 86 94 93 84 74 73 74 65 61 58 55 53 52 49 47 51 55 57 53 54 64 67 64 65 70 69 85 97 97 101 102
93 88 81 74 68 66 69 66 62 64 69 74 82 88 91 81 69 62 61 60 59 53 45 44 47 47 44 44 46 48 52 47 50 72 70 73 76 75 82 101 108 108 112
93 85 79 73 67 64 62 61 59 64 70 75 77 78 79 75 64 59 56 51 44 41 39 39 38 38 41 41 43 38 38 40 50 85 99 90 79 88 92 100 114 115 115
80 77 74 68 65 64 63 59 55 55 72 84 86 79 77 66 53 47 46 42 38 29 25 38 37 35 36 35 38 41 38 37 41 83 129 124 105 102 109 112 120 116 117
69 59 56 59 57 56 58 58 55 54 57 71 91 102 99 96 76 39 36 32 28 28 25 18 20 28 31 33 33 33 38 39 42 51 90 125 117 115 131 132 131 122 121
58 51 45 47 54 58 58 58 53 49 50 57 73 108 132 136 142 54 29 18 18 15 17 15 11 12 15 22 27 28 32 35 40 43 50 68 99 128 140 154 158 142 132
54 46 36 33 31 40 53 61 57 51 47 44 41 46 142 198 199 209 238 283 333 343 347 354 359 3 8 10 9 14 21 28 29 32 36 33 31 101 152 162 171 172 184
26 19 2 3 2 1 5 23 40 54 49 41 37 21 2 274 257 250 246 241 244 261 291 311 323 334 342 351 0 5 2 7 16 22 17 20 20 355 337 276 232 222 222
339 339 336 327 339 340 333 343 351 352 353 352 345 338 325 321 302 281 271 262 255 248 248 257 272 286 300 313 325 333 341 349 353 351 354 356 355 324 308 301 299 297 292
318 320 324 324 321 326 325 324 323 319 318 312 309 310 305 298 293 295 296 288 280 272 266 260 253 254 264 275 280 288 301 309 317 329 329 318 314 314 309 284 281 292 297
312 315 319 320 317 321 318 318 318 319 318 318 316 310 298 286 283 283 284 286 288 286 280 273 269 264 258 255 259 265 267 272 279 289 294 297 293 289 285 290 289 275 273
312 307 311 313 313 315 316 312 312 313 311 310 310 308 304 296 290 282 278 278 280 281 283 282 277 269 263 263 260 258 260 260 259 259 264 273 277 277 276 278 284 290 290
303 310 306 307 310 309 307 304 304 305 306 306 307 305 303 298 296 291 285 280 276 277 275 278 278 277 273 265 261 261 263 261 260 261 258 260 263 271 275 276 275 276 278
315 310 309 306 308 307 305 305 304 303 303 302 302 300 299 299 298 295 292 287 283 281 273 274 272 275 273 274 270 262 257 261 264 262 261 262 259 259 262 266 270 271 269
318 313 309 307 307 305 305 304 303 302 300 298 297 297 296 295 293 292 291 290 288 283 279 274 272 268 268 268 273 271 268 260 257 261 259 260 259 261 260 261 261 262 264
316 313 310 307 306 304 304 303 302 303 302 300 298 296 294 293 291 289 287 284 282 282 281 278 274 272 270 270 266 270 270 272 266 258 262 256 257 257 260 261 261 261 261
317 314 312 308 305 304 304 303 303 302 301 300 301 300 298 297 295 291 287 285 282 279 277 277 278 276 274 274 271 268 270 264 280 267 258 257 256 256 258 259 260 257 257
312 314 313 310 308 307 306 303 300 297 297 297 298 299 301 299 295 294 292 286 282 280 278 275 273 274 274 272 274 269 269 275 287 297 270 265 270 253 251 244 253 256 255
312 317 316 310 308 307 304 302 301 299 296 297 306 308 310 307 304 300 298 293 284 277 275 276 277 275 273 271 272 271 271 272 275 280 286 290 287 285 281 267 249 253 252
323 323 315 309 304 303 300 298 296 296 296 296 302 304 307 309 309 308 310 304 292 280 274 269 270 274 275 276 274 272 272 272 270 272 273 276 283 284 285 303 254 258 258
332 330 327 320 314 305 298 295 292 292 291 292 295 300 302 302 304 306 306 311 313 301 286 273 269 266 267 270 273 275 274 272 269 268 269 269 272 273 277 290 252 287 260
332 327 328 327 324 315 307 298 294 295 295 298 295 295 294 296 301 304 308 306 299 297 298 294 282 271 266 264 264 266 270 273 275 268 267 266 266 268 248 264 274 252 265
326 325 324 324 321 316 311 304 296 293 293 293 293 293 294 297 298 301 304 307 307 305 302 297 291 287 281 274 270 266 266 268 268 269 264 263 264 256 268 258 259 258 254
323 320 319 319 319 316 312 305 297 291 288 289 289 287 285 291 293 294 295 296 299 298 298 302 298 295 294 289 283 278 273 270 269 268 261 255 252 257 259 261 254 251 254
320 319 320 320 319 316 312 308 301 296 290 288 287 282 285 284 283 282 281 283 281 283 285 289 284 292 293 289 283 281 288 285 281 278 272 261 256 253 255 256 256 255 251
316 316 317 317 316 315 311 307 302 296 293 287 285 277 275 277 276 276 276 277 277 277 277 278 280 282 282 280 276 277 280 282 284 277 278 281 278 266 257 254 253 254 253